Regional Weather Roundup
Issued by NWS State College, PA

Home | Current Version | Previous Version | Text Only | Print | Product List | Glossary On
Versions: 1 2 3 4 5 6 7 8 9 10 11 12 13 14 15 16 17 18 19 20 21 22 23 24 25 26 27 28 29 30 31 32 33 34 35 36 37 38 39 40 41 42 43 44 45 46 47 48 49 50
000
ASUS41 KCTP 100310
RWRCTP

REGIONAL WEATHER ROUNDUP
NATIONAL WEATHER SERVICE STATE COLLEGE PA
1000 PM EST TUE FEB 09 2016

Note: "fair" indicates few or no clouds below 12,000 feet with no
significant weather and/or obstructions to visibility.

* = STATION THAT DOES NOT REPORT PRECIPITATION /E.G. RAIN...SNOW...ETC/
    THUNDER OR FOG.

PAZ002>004-007>009-013>016-020>023-029>032-100400-
WESTERN PENNSYLVANIA

CITY           SKY/WX    TMP DP  RH WIND       PRES   REMARKS
ERIE           LGT SNOW  29  23  78 W14G29    29.62S
MEADVILLE      LGT SNOW  27  22  81 W13       29.60S
FRANKLIN*      CLOUDY    27  21  80 SW8       29.63R
NEW CASTLE     LGT SNOW  27  24  89 W9        29.68R FOG
BEAVER COUNTY  NOT AVBL
BUTLER*        CLOUDY    27  21  80 SW12      29.70S
PITTSBURGH INT FLURRIES  25  20  81 SW10      29.68S WCI  15
PITTSBURGH     FLURRIES  26  20  77 W13       29.69R WCI  15
INDIANA*       CLOUDY    25  23  93 W12       29.68S WCI  14
LATROBE        FLURRIES  25  23  93 SW14      29.70S WCI  13
WASHINGTON CO* CLOUDY    25  18  74 SW13      29.71S WCI  13
$$

PAZ004>006-010>012-017>019-024>028-033>037-041-042-045-046-049>053-100400-
CENTRAL PENNSYLVANIA

CITY           SKY/WX    TMP DP  RH WIND       PRES   REMARKS
BRADFORD       CLOUDY    27  19  72 W7        29.52F
DUBOIS         CLOUDY    25  21  85 W15G25    29.57S WCI  13
CLEARFIELD     CLOUDY    27  23  85 W14G23    29.60R
JOHNSTOWN      LGT SNOW  20  16  84 W12       29.59R FOG     WCI   8
ALTOONA        CLOUDY    25  18  74 W9        29.63R
STATE COLLEGE  CLOUDY    29  25  84 W12G20    29.60R
WILLIAMSPORT   LGT SNOW  32  29  88 VRB3      29.58S FOG
SELINSGROVE    CLOUDY    31  28  89 VRB6      29.61R
FT INDIANTOWN  LGT SNOW  30  30 100 CALM      29.61R FOG
CAPITAL CITY   LGT SNOW  31  27  85 W9        29.63R FOG
HARRISBURG     LGT SNOW  32  27  81 W9        29.63R FOG
YORK           LGT SNOW  30  28  92 VRB6      29.63S FOG
$$

PAZ038>040-043-044-047-048-054-055-060>062-067>071-100400-
EASTERN PENNSYLVANIA

CITY           SKY/WX    TMP DP  RH WIND       PRES   REMARKS
SCRANTON       LGT SNOW  31  29  92 SW6       29.55S FOG
MOUNT POCONO   LGT SNOW  27  24  89 W3        29.51S FOG
ALLENTOWN      LGT SNOW  30  28  93 CALM      29.60S FOG
QUAKERTOWN*    CLOUDY    30  30 100 CALM      29.61R
READING        LGT SNOW  30  29  96 S3        29.61R VSB 1
LANCASTER      LGT SNOW  31  30  96 W10       29.62R FOG
COATESVILLE    LGT SNOW  30  30 100 CALM      29.61S
POTTSTOWN      LGT SNOW  30  29  96 CALM      29.62S FOG
BLUE BELL        N/A     32  32 100 CALM      29.61R
DOYLESTOWN     LGT SNOW  29  29 100 CALM      29.60S FOG
WILLOW GROVE   NOT AVBL
NORTH PHILA    LGT SNOW  33  31  92 CALM      29.64R FOG
PHILADELPHIA   LGT SNOW  34  30  85 CALM      29.63R FOG
$$



USA.gov is the U.S. government's official web portal to all federal, state and local government web resources and services.